Погода в Печки

Чехия     50°05′25″N   15°01′48″E
темп.,
°C
ветер,
м/с
пор.,
м/с
влажн.,
%
обл.,
%
осадки,
мм/ч
давл.,
гПа
погр.,
м
18 мая, ср
ср1823:00+10юв22915 0.0 102312
02:00+10юв229026 0.0 102410
05:00+9юв11927 0.0 102510
08:00+13вюв238367 0.0 1027264
11:00+17в336252 0.0 1027983
14:00+20всв435179 0.0 10261525
17:00+20всв44525 0.0 1025821
20:00+15в35755 0.0 102595
19 мая, чт
чт1923:00+11ю478114 0.0 1027116
02:00+9ю23615 0.0 102747
05:00+7ююв22605 0.0 102713
08:00+12юв235998 0.0 1026210
11:00+19вюв344794 0.0 1025818
14:00+23юв343898 0.0 10231175
17:00+23ю3444100 0.0 10221084
20:00+17ююв3469100 0.0 102269
20 мая, пт
пт2023:00+15ю3766100 0.0 1022115
02:00+14ю2271100 0.1 102216
05:00+14ю2283100 0.4 102222
08:00+17юз1283100 1.2 1023179
11:00+23зсз2466100 0.0 1022732
14:00+27зсз465049 0.0 10201764
17:00+27з354855 0.0 10181714
20:00+23ю3470100 0.0 101641
21 мая, сб
сб2123:00+18ю3585100 1.6 101556
02:00+18ююз51383100 1.6 1012189
05:00+18зюз81888100 1.9 1012643
08:00+18зсз9137810 2.9 10151121
11:00+15зсз8126839 0.1 10181568
14:00+18з914487 0.1 10182071
17:00+19зсз8145251 0.0 10162523
20:00+15сз815624 0.0 1018972
22 мая, вс
вс2223:00+12зсз511685 0.0 1020468
02:00+10з4108090 0.0 1020326
05:00+8з38885 0.0 1020166
08:00+12сз69710 0.0 10201015
11:00+13сз6862100 0.0 10201475
14:00+15с685726 0.1 10191570
17:00+15с675821 0.0 10191500
20:00+12с22741 0.0 101936